When you browse on this site, cookies collect data to enhance your experience and personalize the content and advertising you see.
Visit our Privacy Policy to learn more. By continuing to use the site, you agree to this use of cookies and data.
  • In Hungary
  • List of Countries
  • For 7 days
  • Water Temperature
  • Satellite Maps
  • Weather Map
  • News
  • Weather Widgets
  • user-avatar
    Login

    Hourly Weather Malachowszczyzna

    Today, 14 December, Friday

    Time Temperature Precipitation Wind Pressure Humidity
    00:00 -2°C° 0 mm 2 mps 751 mmHg 83%
    01:00 -3°C° 0 mm 2 mps 751 mmHg 87%
    02:00 -3°C° 0 mm 2 mps 751 mmHg 87%
    03:00 -3°C° 0 mm 2 mps 751 mmHg 87%
    04:00 -3°C° 0 mm 2 mps 751 mmHg 87%
    05:00 -3°C° 0 mm 2 mps 751 mmHg 88%
    06:00 -3°C° 0 mm 2 mps 751 mmHg 89%
    07:00 -3°C° 0 mm 2 mps 751 mmHg 89%
    08:00 -3°C° 0 mm 2 mps 752 mmHg 88%
    09:00 -3°C° 0 mm 2 mps 752 mmHg 86%
    10:00 -2°C° 0 mm 3 mps 752 mmHg 85%
    11:00 -2°C° 0 mm 3 mps 752 mmHg 84%
    12:00 -1°C° 0 mm 3 mps 752 mmHg 84%
    13:00 -1°C° 0 mm 3 mps 752 mmHg 83%
    14:00 -1°C° 0 mm 3 mps 752 mmHg 85%
    15:00 -1°C° 0 mm 2 mps 752 mmHg 87%
    16:00 -2°C° 0 mm 2 mps 752 mmHg 89%
    17:00 -2°C° 0 mm 2 mps 753 mmHg 90%
    18:00 -2°C° 0 mm 2 mps 753 mmHg 91%
    19:00 -2°C° 0 mm 2 mps 753 mmHg 92%
    20:00 -2°C° 0 mm 2 mps 753 mmHg 92%
    21:00 -2°C° 0 mm 2 mps 753 mmHg 93%
    22:00 -2°C° 0 mm 2 mps 753 mmHg 93%
    23:00 -2°C° 0 mm 2 mps 753 mmHg 93%

    Tomorrow, 15 December, Saturday

    Time Temperature Precipitation Wind Pressure Humidity
    00:00 -2°C° 0 mm 2 mps 753 mmHg 93%
    01:00 -2°C° 0 mm 2 mps 754 mmHg 93%
    02:00 -3°C° 0 mm 2 mps 754 mmHg 93%
    03:00 -3°C° 0 mm 2 mps 754 mmHg 93%
    04:00 -4°C° 0 mm 3 mps 754 mmHg 93%
    05:00 -4°C° 0 mm 3 mps 754 mmHg 92%
    06:00 -4°C° 0 mm 3 mps 754 mmHg 92%
    07:00 -4°C° 0 mm 3 mps 754 mmHg 92%
    08:00 -4°C° 0 mm 3 mps 754 mmHg 88%
    09:00 -2°C° 0 mm 3 mps 754 mmHg 85%
    10:00 -3°C° 0 mm 4 mps 755 mmHg 81%
    11:00 -2°C° 0 mm 4 mps 754 mmHg 78%
    12:00 -2°C° 0 mm 4 mps 754 mmHg 75%
    13:00 -2°C° 0 mm 4 mps 754 mmHg 72%
    14:00 -2°C° 0 mm 4 mps 754 mmHg 76%
    15:00 -3°C° 0 mm 4 mps 754 mmHg 80%
    16:00 -4°C° 0 mm 4 mps 754 mmHg 84%
    17:00 -4°C° 0 mm 4 mps 754 mmHg 83%
    18:00 -4°C° 0 mm 4 mps 754 mmHg 82%
    19:00 -4°C° 0 mm 4 mps 753 mmHg 81%
    20:00 -4°C° 0 mm 4 mps 753 mmHg 81%
    21:00 -5°C° 0 mm 5 mps 753 mmHg 80%
    22:00 -5°C° 0 mm 5 mps 753 mmHg 79%
    23:00 -5°C° 0.1 mm 5 mps 752 mmHg 81%

    Day after tomorrow, 16 December, Sunday

    Time Temperature Precipitation Wind Pressure Humidity
    00:00 -5°C° 0.1 mm 5 mps 752 mmHg 82%
    01:00 -5°C° 0.1 mm 5 mps 752 mmHg 83%
    02:00 -5°C° 0.3 mm 5 mps 751 mmHg 84%
    03:00 -5°C° 0.3 mm 5 mps 751 mmHg 85%
    04:00 -5°C° 0.3 mm 5 mps 750 mmHg 86%
    05:00 -5°C° 0.2 mm 5 mps 750 mmHg 86%
    06:00 -5°C° 0.2 mm 5 mps 750 mmHg 86%
    07:00 -5°C° 0.2 mm 5 mps 749 mmHg 86%
    08:00 -5°C° 0.3 mm 5 mps 749 mmHg 87%
    09:00 -5°C° 0.3 mm 5 mps 749 mmHg 87%
    10:00 -5°C° 0.3 mm 5 mps 749 mmHg 87%
    11:00 -4°C° 0.4 mm 5 mps 748 mmHg 88%
    12:00 -4°C° 0.4 mm 5 mps 748 mmHg 89%
    13:00 -3°C° 0.4 mm 4 mps 748 mmHg 90%
    14:00 -3°C° 0.2 mm 4 mps 748 mmHg 90%
    15:00 -2°C° 0.2 mm 3 mps 747 mmHg 91%
    16:00 -2°C° 0.2 mm 3 mps 747 mmHg 91%
    17:00 -2°C° 0 mm 3 mps 747 mmHg 92%
    18:00 -2°C° 0 mm 3 mps 747 mmHg 92%
    19:00 -4°C° 0 mm 3 mps 747 mmHg 93%
    20:00 -4°C° 0 mm 3 mps 747 mmHg 92%
    21:00 -4°C° 0 mm 3 mps 747 mmHg 92%
    22:00 -5°C° 0 mm 3 mps 747 mmHg 92%
    23:00 -5°C° 0 mm 3 mps 747 mmHg 92%

    17 December, Monday

    Time Temperature Precipitation Wind Pressure Humidity
    00:00 -5°C° 0 mm 3 mps 747 mmHg 92%
    01:00 -5°C° 0 mm 3 mps 747 mmHg 91%
    02:00 -5°C° 0 mm 3 mps 747 mmHg 91%
    03:00 -5°C° 0 mm 3 mps 748 mmHg 90%
    04:00 -5°C° 0 mm 3 mps 748 mmHg 89%
    05:00 -4°C° 0 mm 3 mps 748 mmHg 89%
    06:00 -3°C° 0 mm 2 mps 748 mmHg 88%
    07:00 -3°C° 0 mm 2 mps 748 mmHg 88%
    08:00 -3°C° 0 mm 2 mps 748 mmHg 87%
    09:00 -2°C° 0 mm 2 mps 749 mmHg 86%
    10:00 -2°C° 0 mm 2 mps 749 mmHg 85%
    11:00 -2°C° 0 mm 2 mps 749 mmHg 85%
    12:00 -1°C° 0 mm 2 mps 750 mmHg 86%
    13:00 +1°C° 0 mm 1 mps 750 mmHg 86%
    14:00 0°C° 0 mm 1 mps 750 mmHg 87%
    15:00 0°C° 0 mm 1 mps 750 mmHg 88%
    16:00 -1°C° 0 mm 1 mps 751 mmHg 89%
    17:00 -1°C° 0 mm 1 mps 751 mmHg 89%
    18:00 -2°C° 0 mm 0 mps 751 mmHg 90%
    19:00 -2°C° 0 mm 0 mps 752 mmHg 90%
    20:00 -2°C° 0 mm 0 mps 752 mmHg 90%
    21:00 -1°C° 0 mm 1 mps 752 mmHg 90%
    22:00 -1°C° 0 mm 1 mps 753 mmHg 90%
    23:00 -1°C° 0 mm 1 mps 753 mmHg 90%

    18 December, Tuesday

    Time Temperature Precipitation Wind Pressure Humidity
    00:00 -2°C° 0 mm 1 mps 753 mmHg 91%
    01:00 -2°C° 0 mm 1 mps 753 mmHg 91%
    02:00 -2°C° 0 mm 1 mps 753 mmHg 91%
    03:00 -3°C° 0 mm 0 mps 753 mmHg 91%
    04:00 -3°C° 0 mm 0 mps 753 mmHg 91%
    05:00 -2°C° 0 mm 1 mps 754 mmHg 91%
    06:00 -2°C° 0 mm 1 mps 754 mmHg 91%
    07:00 -2°C° 0 mm 1 mps 754 mmHg 91%
    08:00 -1°C° 0 mm 1 mps 754 mmHg 91%
    09:00 -1°C° 0 mm 1 mps 754 mmHg 90%
    10:00 0°C° 0 mm 1 mps 754 mmHg 89%
    11:00 0°C° 0 mm 1 mps 754 mmHg 89%
    12:00 +1°C° 0 mm 1 mps 754 mmHg 89%
    13:00 +1°C° 0 mm 1 mps 754 mmHg 89%
    14:00 +1°C° 0 mm 1 mps 754 mmHg 90%
    15:00 -2°C° 0 mm 2 mps 754 mmHg 91%
    16:00 -2°C° 0 mm 2 mps 754 mmHg 91%
    17:00 -3°C° 0 mm 2 mps 754 mmHg 92%
    18:00 -3°C° 0 mm 2 mps 754 mmHg 92%
    19:00 -4°C° 0 mm 2 mps 754 mmHg 93%
    20:00 -5°C° 0 mm 3 mps 753 mmHg 93%
    21:00 -5°C° 0 mm 3 mps 753 mmHg 93%
    22:00 -5°C° 0 mm 3 mps 753 mmHg 93%
    23:00 -5°C° 0 mm 3 mps 753 mmHg 93%

    19 December, Wednesday

    Time Temperature Precipitation Wind Pressure Humidity
    00:00 -5°C° 0 mm 3 mps 753 mmHg 93%
    01:00 -5°C° 0 mm 3 mps 752 mmHg 93%
    02:00 -5°C° 0 mm 3 mps 752 mmHg 93%
    03:00 -5°C° 0 mm 3 mps 752 mmHg 92%
    04:00 -5°C° 0 mm 3 mps 751 mmHg 92%
    05:00 -5°C° 0 mm 4 mps 751 mmHg 92%
    06:00 -5°C° 0 mm 4 mps 751 mmHg 92%
    07:00 -5°C° 0 mm 4 mps 751 mmHg 92%
    08:00 -6°C° 0 mm 5 mps 751 mmHg 92%
    09:00 -6°C° 0 mm 5 mps 751 mmHg 91%
    10:00 -5°C° 0 mm 5 mps 750 mmHg 90%
    11:00 -5°C° 0 mm 5 mps 750 mmHg 89%
    12:00 -4°C° 0 mm 5 mps 749 mmHg 88%
    13:00 -4°C° 0 mm 5 mps 749 mmHg 88%
    14:00 -4°C° 0 mm 5 mps 749 mmHg 88%
    15:00 -4°C° 0 mm 5 mps 748 mmHg 89%
    16:00 -3°C° 0 mm 4 mps 748 mmHg 90%
    17:00 -3°C° 0 mm 4 mps 748 mmHg 89%
    18:00 -3°C° 0 mm 4 mps 748 mmHg 89%
    19:00 -3°C° 0 mm 4 mps 748 mmHg 88%
    20:00 -3°C° 0 mm 4 mps 748 mmHg 88%
    21:00 -3°C° 0 mm 4 mps 747 mmHg 87%
    22:00 -3°C° 0 mm 4 mps 747 mmHg 87%
    23:00 -3°C° 0 mm 4 mps 747 mmHg 87%
    Show more